Tracking 28335 objects as of 4-Dec-2023
HD Live streaming from Space Station
objects crossing your sky now

IRIDIUM 117

Track IRIDIUM 117 now!
10-day predictions
IRIDIUM 117 is classified as:


NORAD ID: 42808
Int'l Code: 2017-039F
Perigee: 783.2 km
Apogee: 786.4 km
Inclination: 86.4 °
Period: 100.4 minutes
Semi major axis: 7155 km
RCS: Unknown
Launch date: June 25, 2017
Source: United States (US)
Launch site: AIR FORCE WESTERN TEST RANGE (AFWTR)
Your satellite tracking list
Your tracking list is empty




NASA's NSSDC Master Catalog

Two Line Element Set (TLE):
1 42808U 17039F   23337.80665516  .00000423  00000-0  14398-3 0  9994
2 42808  86.3985  20.7501 0002206  97.4433 262.7013 14.34216966337206
Source of the keplerian elements: AFSPC